Temp
-2 -3 -1 0 2 2 4 4 4 4 4 4 4 5 6 7 7 7 7 7 7 8 8 8 8 8 7 7 7 7 7 8 8 8 7 7 7 7 6 6 5 5 4 4
-3 -3 -1 1 1 2 3 3 4 5 4 3 4 5 5 7 7 7 7 7 7 7 8 7 8 7 7 7 7 7 7 7 7 7 7 6 6 6 6 5 5 4 4 4
-2 -2 -0 0 1 2 3 3 4 5 3 3 4 6 6 7 8 7 7 7 7 7 7 7 7 7 6 6 6 6 7 6 6 6 6 6 6 5 5 4 4 4 3 3
-3 -1 0 0 1 1 3 3 3 3 3 5 4 8 7 7 7 7 7 7 7 7 7 6 6 6 6 6 6 6 6 6 6 6 6 6 5 5 4 4 3 3 3 2
-2 -1 0 1 1 2 3 3 3 2 3 3 4 5 8 7 7 7 7 7 7 7 6 6 6 6 5 6 6 6 6 6 6 5 5 4 4 4 4 3 3 2 1 0
-1 -1 -1 1 1 1 2 2 2 2 2 5 6 5 8 7 7 7 6 6 6 6 6 6 5 5 5 5 5 6 6 5 5 4 4 3 3 2 2 1 1 1 1 1
-2 -1 0 1 1 1 2 2 1 2 2 6 4 4 8 7 7 7 6 6 6 6 6 5 5 5 5 5 5 5 5 5 4 3 3 2 2 2 1 1 1 -0 -1 -1
-3 -1 -0 1 1 1 2 3 5 5 6 7 3 6 7 7 7 7 7 6 6 6 5 5 5 5 5 5 5 5 4 4 3 2 2 2 1 1 1 0 -1 -1 -1 -1
-3 -1 -0 1 1 2 1 1 3 4 3 6 6 6 7 7 7 7 7 7 6 6 5 5 5 5 4 4 4 4 3 3 2 2 1 1 1 0 -1 -1 -2 -2 -1 -1
-2 -1 1 1 1 1 1 1 1 3 5 6 7 6 8 6 7 7 8 7 6 5 5 5 4 4 4 4 3 3 3 2 2 1 1 0 -0 -1 -2 -2 -3 -3 -2 -2
-1 0 -1 1 0 1 0 1 1 3 4 8 8 8 6 6 7 7 7 7 6 5 5 5 4 4 4 3 3 3 2 1 1 1 0 -0 -1 -2 -3 -3 -3 -3 -3 -3
-0 2 -0 0 1 1 2 1 2 4 3 3 5 7 6 6 7 7 7 7 6 5 4 4 4 4 3 3 3 2 2 1 1 0 -0 -1 -2 -3 -3 -4 -4 -3 -3 -3
1 2 1 -0 -0 1 1 1 2 3 4 4 6 7 6 6 6 6 6 6 6 5 4 4 4 3 3 3 3 2 1 1 0 -0 -1 -2 -3 -3 -4 -4 -3 -3 -3 -3
1 2 3 4 3 2 1 2 2 2 3 4 4 6 5 5 5 6 5 6 6 5 4 4 3 3 3 3 3 2 1 0 -0 -1 -2 -2 -3 -4 -4 -4 -3 -3 -4 -4
0 2 2 3 3 3 3 3 3 3 3 4 5 4 5 5 5 5 5 5 5 5 5 4 3 3 3 3 2 1 1 -0 -1 -2 -2 -4 -4 -4 -4 -4 -4 -4 -4 -4
0 1 2 3 3 3 3 4 4 4 3 4 4 4 4 4 4 4 4 4 4 4 4 3 3 3 3 2 2 1 0 -1 -2 -2 -3 -4 -4 -5 -4 -4 -4 -4 -5 -5
-0 1 2 3 2 2 2 2 3 4 4 4 3 6 4 5 4 4 4 4 4 3 3 3 2 2 2 2 1 0 -1 -2 -2 -3 -4 -4 -5 -4 -4 -5 -5 -5 -5 -6
-0 1 1 0 1 2 4 5 5 4 4 4 4 4 4 4 4 3 4 3 3 3 2 2 2 2 2 2 1 -0 -1 -2 -3 -4 -4 -5 -4 -4 -5 -5 -5 -6 -6 -7
-0 0 1 1 -1 3 4 5 5 5 6 6 5 5 4 4 3 3 3 3 2 2 2 2 2 2 2 1 1 -1 -2 -3 -3 -4 -4 -4 -5 -5 -6 -6 -6 -7 -7 -7
0 0 0 0 2 4 5 5 5 5 5 6 6 5 4 3 2 2 2 2 1 1 1 2 2 2 1 0 -1 -1 -2 -3 -4 -4 -5 -5 -6 -6 -6 -7 -7 -7 -8 -8
-1 -1 -1 0 1 4 5 5 5 4 5 6 5 4 3 2 1 2 1 1 1 1 2 2 1 1 0 -1 -2 -3 -4 -4 -5 -5 -6 -6 -7 -7 -7 -8 -8 -9 -8 -8
-0 0 0 1 0 0 4 4 4 5 5 4 4 3 1 1 0 0 0 1 1 1 1 1 0 -0 -1 -2 -3 -4 -4 -5 -5 -6 -6 -7 -7 -8 -8 -9 -9 -9 -9 -9
2 2 2 3 3 4 4 4 4 4 4 3 2 1 0 0 0 0 0 1 1 1 0 -0 -0 -1 -2 -3 -4 -4 -4 -5 -6 -6 -7 -8 -8 -9 -9 -9 -9 -9 -9 -9
3 2 3 2 3 3 4 4 4 3 2 1 1 0 0 -0 0 0 0 0 0 -0 -1 -1 -1 -2 -3 -3 -4 -5 -5 -6 -7 -8 -8 -8 -9 -9 -9 -9 -9 -9 -10 -9
3 2 2 2 3 3 3 2 2 1 1 0 -0 -0 -0 -0 0 -0 -0 -0 -1 -1 -1 -2 -2 -3 -3 -4 -5 -5 -6 -7 -8 -8 -8 -9 -9 -9 -9 -9 -9 -9 -10 -11
3 3 2 2 2 2 1 1 1 1 0 -0 -0 -1 -1 -1 -1 -1 -1 -1 -1 -2 -2 -2 -3 -4 -4 -5 -6 -6 -7 -8 -8 -9 -9 -9 -9 -9 -10 -9 -9 -10 -10 -11
Height
3060 3066 3063 3071 3078 3090 3096 3099 3102 3107 3109 3110 3111 3109 3109 3111 3110 3111 3111 3112 3112 3114 3115 3116 3116 3116 3116 3116 3116 3116 3117 3116 3117 3116 3115 3113 3111 3109 3107 3105 3102 3099 3097 3094
3055 3054 3062 3067 3078 3085 3091 3095 3099 3105 3104 3106 3106 3102 3103 3105 3105 3105 3106 3107 3109 3111 3112 3113 3113 3113 3114 3114 3115 3115 3115 3114 3114 3113 3112 3110 3108 3106 3103 3100 3098 3095 3092 3089
3044 3049 3059 3065 3072 3079 3087 3091 3096 3101 3101 3103 3102 3098 3098 3099 3097 3098 3100 3102 3104 3106 3108 3109 3110 3110 3112 3113 3113 3113 3113 3113 3112 3111 3109 3107 3104 3101 3099 3096 3093 3090 3087 3083
3045 3051 3054 3059 3065 3076 3082 3088 3092 3096 3100 3099 3099 3095 3094 3095 3093 3093 3094 3096 3099 3102 3104 3106 3107 3108 3110 3111 3111 3111 3111 3110 3109 3107 3105 3103 3100 3098 3095 3092 3089 3085 3081 3077
3036 3041 3044 3055 3060 3073 3081 3084 3090 3094 3096 3097 3097 3098 3089 3087 3087 3086 3087 3089 3093 3097 3100 3102 3104 3106 3108 3108 3109 3108 3108 3107 3105 3103 3101 3099 3098 3095 3092 3088 3083 3079 3075 3071
3036 3040 3041 3051 3061 3069 3075 3082 3088 3092 3095 3093 3091 3093 3083 3083 3082 3080 3082 3085 3090 3094 3097 3100 3103 3105 3106 3106 3106 3105 3104 3103 3101 3100 3098 3095 3093 3090 3086 3082 3078 3074 3070 3065
3032 3030 3040 3048 3054 3064 3072 3079 3086 3092 3092 3085 3085 3087 3080 3080 3080 3081 3082 3084 3088 3091 3094 3097 3100 3101 3102 3102 3102 3101 3100 3099 3097 3095 3093 3091 3088 3085 3082 3077 3072 3068 3063 3058
3028 3029 3033 3041 3050 3054 3065 3072 3073 3073 3076 3077 3082 3079 3077 3076 3077 3078 3080 3083 3086 3088 3091 3095 3097 3098 3099 3099 3098 3097 3095 3094 3092 3091 3088 3086 3083 3079 3074 3070 3065 3060 3054 3048
3028 3029 3029 3042 3047 3056 3062 3067 3073 3075 3076 3076 3074 3074 3074 3075 3075 3076 3077 3078 3082 3085 3089 3091 3094 3095 3095 3095 3094 3092 3090 3089 3087 3085 3083 3080 3076 3072 3067 3062 3057 3051 3045 3039
3026 3029 3034 3038 3048 3055 3057 3065 3072 3073 3073 3072 3070 3071 3071 3073 3073 3073 3073 3074 3078 3082 3085 3088 3090 3091 3092 3091 3090 3088 3086 3084 3083 3080 3077 3074 3070 3065 3060 3055 3050 3043 3037 3032
3028 3030 3035 3040 3044 3047 3055 3058 3064 3069 3070 3063 3063 3066 3068 3070 3070 3070 3071 3071 3074 3078 3082 3086 3087 3088 3088 3087 3086 3084 3082 3080 3078 3075 3071 3067 3063 3058 3053 3048 3042 3036 3030 3024
3026 3031 3034 3039 3043 3048 3054 3056 3062 3065 3068 3067 3067 3066 3067 3068 3069 3069 3069 3070 3073 3077 3080 3083 3083 3083 3083 3083 3081 3080 3078 3075 3072 3069 3065 3061 3056 3052 3046 3040 3035 3029 3022 3016
3026 3031 3035 3042 3047 3048 3050 3053 3058 3062 3061 3062 3064 3064 3064 3066 3068 3068 3069 3069 3072 3075 3077 3078 3079 3079 3079 3078 3077 3075 3072 3070 3066 3063 3059 3055 3050 3045 3039 3033 3026 3020 3013 3007
3027 3027 3029 3031 3035 3040 3043 3046 3051 3056 3057 3058 3058 3061 3062 3063 3066 3067 3068 3070 3071 3072 3073 3074 3074 3074 3074 3073 3071 3069 3066 3063 3060 3056 3052 3048 3043 3037 3031 3025 3018 3011 3005 2999
3024 3027 3029 3031 3033 3035 3038 3040 3044 3046 3052 3053 3055 3055 3058 3061 3062 3064 3065 3066 3067 3068 3068 3069 3070 3069 3069 3067 3065 3062 3060 3056 3053 3049 3045 3040 3035 3029 3023 3016 3009 3003 2997 2992
3023 3027 3027 3029 3031 3033 3035 3036 3038 3041 3045 3046 3051 3049 3052 3054 3056 3058 3059 3061 3061 3062 3064 3064 3065 3064 3063 3061 3058 3056 3053 3050 3046 3042 3037 3032 3027 3021 3014 3007 3001 2995 2990 2984
3021 3025 3027 3028 3028 3031 3033 3029 3031 3035 3038 3041 3042 3042 3047 3048 3050 3052 3053 3055 3056 3058 3059 3059 3059 3058 3056 3054 3051 3049 3046 3043 3039 3034 3029 3025 3019 3012 3005 2999 2993 2987 2982 2976
3018 3023 3025 3026 3028 3029 3023 3022 3026 3028 3031 3034 3036 3038 3041 3043 3044 3045 3047 3049 3051 3052 3053 3053 3053 3051 3049 3046 3043 3041 3038 3034 3030 3026 3021 3016 3010 3003 2997 2992 2986 2981 2974 2967
3016 3020 3022 3026 3027 3023 3019 3019 3021 3022 3024 3027 3029 3031 3034 3036 3038 3040 3042 3044 3045 3046 3047 3047 3046 3044 3041 3039 3037 3033 3030 3026 3022 3017 3013 3007 3001 2995 2990 2985 2979 2972 2964 2957
3014 3017 3021 3022 3024 3019 3015 3016 3018 3020 3020 3021 3023 3025 3028 3031 3034 3035 3037 3039 3041 3042 3042 3041 3039 3037 3034 3032 3029 3026 3022 3018 3014 3010 3004 2998 2993 2988 2982 2976 2969 2962 2954 2947
3009 3013 3015 3020 3020 3016 3015 3015 3016 3020 3021 3017 3018 3020 3023 3027 3030 3032 3034 3036 3036 3037 3036 3034 3032 3030 3028 3025 3021 3018 3014 3010 3006 3001 2996 2991 2985 2980 2974 2967 2960 2952 2944 2937
3002 3009 3013 3018 3018 3018 3012 3013 3015 3015 3013 3015 3016 3017 3020 3024 3027 3029 3031 3032 3031 3030 3029 3027 3025 3022 3019 3016 3012 3009 3006 3002 2998 2993 2989 2984 2978 2972 2965 2957 2951 2944 2936 2928
3001 3002 3004 3007 3007 3007 3006 3008 3009 3011 3012 3013 3014 3016 3019 3022 3024 3026 3026 3026 3025 3024 3022 3020 3017 3014 3010 3007 3004 3001 2997 2994 2991 2986 2981 2976 2971 2963 2956 2949 2943 2935 2928 2920
2994 2997 2999 3003 3002 3003 3004 3006 3007 3009 3010 3011 3013 3015 3017 3019 3020 3020 3019 3019 3018 3017 3014 3011 3008 3005 3002 2999 2996 2993 2991 2987 2984 2979 2974 2968 2961 2956 2950 2942 2934 2927 2919 2910
2991 2994 2995 2996 2997 2999 3001 3002 3004 3005 3007 3009 3011 3013 3014 3014 3014 3013 3013 3012 3011 3009 3006 3003 3000 2997 2994 2991 2989 2987 2983 2980 2977 2971 2965 2960 2954 2948 2941 2935 2927 2920 2911 2901
2987 2988 2990 2992 2995 2996 2997 2998 3000 3002 3004 3005 3007 3008 3008 3008 3008 3008 3007 3005 3003 3001 2998 2995 2992 2989 2987 2984 2982 2981 2977 2973 2968 2963 2958 2952 2946 2941 2934 2926 2920 2910 2901 2893
Wind_Speed
37 51 50 45 43 28 29 24 21 17 18 14 16 22 20 13 15 16 18 15 13 11 11 9 9 9 9 9 8 6 5 5 7 9 10 11 12 14 16 18 20 21 22 23
36 53 46 30 42 29 26 24 23 18 19 18 15 23 21 17 17 18 19 19 15 15 16 13 9 8 7 6 5 4 5 7 8 10 12 13 15 17 19 20 20 20 21 23
48 51 33 31 41 32 25 23 19 14 12 14 17 23 17 17 17 20 21 20 20 16 15 12 11 9 9 8 6 6 8 10 11 12 12 14 15 16 16 16 18 20 23 25
39 29 36 44 36 34 29 20 15 14 10 8 4 6 11 12 16 16 21 17 24 17 17 14 12 12 10 8 7 8 9 10 11 13 15 15 14 13 15 17 20 22 25 27
34 37 32 39 41 36 24 25 17 12 10 9 10 8 10 7 15 15 13 20 22 21 18 16 14 13 11 9 7 6 8 11 13 13 12 11 12 14 17 20 23 25 28 30
31 28 28 36 35 34 18 19 15 10 5 8 15 12 7 5 1 8 17 19 21 20 18 16 16 13 10 8 6 7 10 13 14 13 11 12 15 18 20 22 24 26 28 30
39 20 30 27 36 33 24 22 6 6 5 6 7 9 13 6 6 3 10 18 21 18 17 18 16 13 11 9 8 11 15 16 14 13 14 17 20 21 24 25 23 25 29 33
25 8 33 39 36 29 37 24 7 5 6 6 11 7 3 3 2 10 11 17 21 19 19 19 18 15 12 10 11 15 18 18 17 17 20 23 25 28 28 26 27 31 35 39
25 5 26 36 30 25 27 24 8 5 2 3 6 5 7 5 1 9 11 23 24 21 19 21 19 15 13 12 14 18 21 21 20 22 25 28 30 31 31 31 34 38 39 41
20 6 20 24 30 28 26 27 9 5 5 5 5 4 4 1 3 4 10 20 26 24 22 22 19 16 14 15 17 20 24 23 23 26 29 32 33 34 34 35 38 40 42 42
15 5 15 23 18 29 20 27 10 11 4 3 3 5 11 6 5 2 8 17 26 26 22 20 18 16 17 17 19 22 25 24 26 29 31 34 35 36 37 39 43 43 44 41
21 9 14 20 12 20 21 17 18 13 6 5 1 3 12 5 6 0 3 14 24 24 21 20 20 20 19 19 21 23 25 26 29 31 33 36 37 38 40 43 45 45 42 39
20 10 13 8 9 17 25 23 25 17 15 15 10 5 10 4 0 1 1 6 18 22 23 23 23 23 22 23 25 25 27 29 31 32 36 37 39 40 42 46 45 42 39 39
18 10 20 18 16 21 26 30 28 26 21 15 19 11 13 11 8 5 4 6 12 19 23 25 26 24 23 25 27 27 29 31 32 34 36 38 40 42 45 43 42 40 39 40
17 7 17 15 13 20 26 30 32 32 31 22 22 26 22 22 22 21 19 16 20 22 24 26 25 24 26 28 27 29 31 32 34 35 37 39 41 44 44 43 40 39 40 41
22 7 14 18 18 17 21 24 31 35 31 33 24 28 26 26 24 24 20 22 24 26 26 26 26 27 27 27 28 30 32 33 35 36 38 39 42 44 44 41 40 41 42 42
26 13 9 5 11 14 14 27 28 28 33 34 33 29 26 27 26 25 23 21 23 25 26 27 27 26 26 28 31 32 32 33 35 37 38 40 42 43 41 41 42 43 43 44
30 17 11 2 6 5 9 15 23 27 27 34 35 35 32 26 23 23 22 21 22 24 25 24 24 26 28 31 30 29 31 33 35 37 38 40 42 41 41 41 42 42 44 45
32 24 11 6 12 8 9 16 19 25 26 27 26 29 28 23 22 24 26 25 23 22 22 23 24 28 27 25 26 28 30 32 34 36 37 40 40 40 40 40 42 44 46 47
23 30 16 14 5 4 5 12 10 14 18 16 20 25 25 22 23 26 24 23 22 21 21 23 25 22 22 24 25 27 29 31 35 36 38 39 39 39 40 42 44 46 47 49
22 16 22 15 8 8 13 7 7 9 7 8 14 18 18 20 22 18 19 19 19 20 22 22 21 21 22 23 24 26 29 32 34 36 37 37 37 38 41 43 45 47 49 49
26 17 16 19 10 13 15 13 12 11 11 8 8 13 16 17 17 16 17 18 20 23 21 20 21 22 22 23 25 27 29 31 33 34 34 34 36 39 42 45 46 48 49 50
20 21 20 16 14 16 11 17 16 17 14 9 7 10 13 14 14 15 17 20 20 18 19 21 22 23 23 24 25 27 30 31 32 31 32 34 37 40 43 45 47 48 49 50
22 28 20 21 25 16 14 14 15 13 12 9 11 11 11 12 14 17 17 16 16 18 20 21 23 24 24 25 27 28 29 29 29 29 32 36 39 41 43 45 46 48 49 50
20 23 27 25 18 15 16 16 14 13 11 10 11 12 13 15 15 14 14 15 17 19 21 22 23 24 25 26 28 27 27 27 28 31 35 38 41 42 43 44 47 48 49 50
16 17 20 19 16 14 11 12 14 14 15 15 14 15 16 16 14 14 15 16 18 21 22 23 24 25 26 27 25 24 25 27 29 32 36 39 41 42 44 46 48 49 49 48
Wind_Direction
207 199 210 204 203 204 208 205 210 215 223 229 244 255 252 245 249 242 242 242 236 229 230 243 264 257 240 237 229 243 270 286 279 271 270 267 268 271 274 275 277 282 286 288
195 205 203 200 202 193 200 206 209 220 231 243 254 260 261 260 250 237 236 238 239 235 234 235 245 229 219 210 222 241 258 272 277 275 273 274 278 279 277 277 280 284 287 290
193 203 200 198 194 192 198 197 191 199 220 240 270 275 262 253 243 233 231 229 233 236 225 222 213 209 198 206 223 256 274 277 280 278 282 283 282 280 281 284 290 295 296 296
198 192 201 208 196 190 194 187 186 202 217 229 213 270 255 224 251 235 226 228 228 227 212 208 204 193 198 213 238 257 269 281 289 291 289 287 289 294 298 297 295 294 296 298
191 210 189 198 194 191 198 201 207 218 249 273 246 259 253 229 267 258 228 214 207 200 200 198 194 190 205 227 250 277 302 308 309 307 302 299 298 298 299 301 302 302 301 300
199 208 208 193 187 191 193 188 194 220 243 249 240 228 270 209 251 238 199 192 192 191 198 194 190 198 217 237 262 298 320 323 319 312 305 307 310 310 310 309 304 301 301 304
199 223 192 179 187 180 175 170 140 192 203 238 203 204 236 235 252 129 187 185 188 194 196 192 193 206 224 241 278 305 322 323 318 311 309 312 313 312 313 312 312 314 315 317
194 215 181 181 186 182 183 181 180 172 189 175 199 233 211 143 196 221 202 195 200 199 196 193 202 212 228 251 288 307 318 320 313 307 309 315 316 319 320 320 321 325 325 327
197 257 184 182 179 179 177 192 185 123 105 225 187 241 261 258 258 222 211 198 199 202 200 200 207 218 233 260 286 303 313 315 306 307 310 315 317 321 320 322 325 326 327 329
196 163 158 172 178 184 192 186 184 188 197 223 186 225 191 58 330 224 223 212 199 199 202 203 213 225 243 266 286 300 308 305 302 304 308 313 317 319 320 321 323 327 329 329
168 186 153 163 189 185 164 192 184 193 216 229 172 151 161 135 40 330 230 212 205 199 203 209 220 235 250 266 289 296 300 298 298 301 305 310 314 316 316 317 322 323 325 325
159 187 161 173 195 202 201 194 191 199 199 222 354 164 183 331 334 296 292 215 203 201 207 217 230 244 259 273 290 291 293 292 294 296 300 307 311 312 313 314 318 320 321 322
168 179 144 171 198 195 208 199 206 213 212 209 213 200 224 207 150 102 1 212 203 206 214 226 239 251 263 277 288 287 286 288 291 293 299 302 306 309 307 311 316 319 321 321
187 201 204 198 210 198 202 210 216 212 218 215 222 219 222 244 246 234 225 249 233 219 225 236 247 260 271 281 286 281 283 286 288 293 298 299 303 304 310 315 317 318 319 318
206 223 206 215 208 212 222 219 218 216 218 225 243 242 248 251 257 260 270 254 253 250 246 247 255 265 276 281 281 280 282 285 288 293 295 298 299 306 312 315 318 318 317 315
194 216 210 221 226 226 223 235 232 229 225 234 240 255 258 260 261 258 260 271 257 245 246 252 261 270 277 278 279 279 280 283 286 290 294 298 304 307 311 316 316 316 314 313
195 208 214 206 220 220 235 226 230 232 231 235 236 252 260 266 264 262 266 258 243 247 253 260 265 268 274 277 278 277 278 282 285 290 294 297 302 308 313 314 314 312 311 312
194 203 209 164 159 217 238 233 230 240 247 243 248 253 261 268 261 254 248 233 248 253 254 256 264 273 278 280 278 279 280 282 286 290 295 300 305 310 311 311 310 309 311 313
198 203 188 175 202 281 251 230 223 224 241 241 242 247 252 252 243 237 236 249 248 247 253 265 275 283 281 280 280 280 281 284 288 294 299 302 307 308 309 309 310 312 315 316
194 212 200 181 240 241 255 237 227 229 251 245 241 243 244 236 226 233 235 239 243 253 266 277 283 280 283 283 282 282 285 288 293 300 303 306 306 308 310 311 314 316 317 319
192 210 219 221 238 278 255 246 202 188 254 248 239 229 227 223 222 232 231 240 253 266 277 281 281 285 285 286 287 288 290 293 299 302 303 304 307 310 311 314 316 319 320 320
200 186 199 214 219 255 235 226 204 234 257 270 243 219 209 211 218 228 243 256 266 275 278 283 288 291 293 293 294 294 295 299 300 300 302 307 309 311 315 318 320 320 321 322
195 204 207 209 222 239 244 241 243 248 261 256 217 209 209 220 231 243 259 269 274 279 286 291 294 296 296 296 296 298 300 301 300 302 307 309 313 316 318 319 321 322 322 321
207 211 219 226 232 231 229 237 240 242 241 228 206 206 220 238 257 269 273 275 283 289 293 297 298 297 297 299 301 302 301 298 301 307 310 315 317 318 320 321 322 322 322 322
214 219 222 224 232 229 226 222 222 231 226 218 220 234 253 269 277 275 280 288 294 299 300 300 300 300 301 301 300 299 298 303 309 314 318 318 318 320 321 321 322 323 323 323
226 231 223 232 235 238 242 236 235 232 232 237 247 257 270 275 276 285 294 302 305 305 304 302 301 300 300 299 298 301 304 310 317 319 319 319 320 320 321 322 323 323 323 323